Location: Pedholt
(56.0260°N, 10.2097°E)
Time: 01:47:52
(UTC+00:00)

COSMOS 2406 - Pass Details

Date: 14 July 2020
Orbit: 844 x 863 km, 71.0° (Epoch: 06 August)

Event Time Altitude Azimuth Distance (km) Brightness Sun altitude
Exits shadow 00:49:37 11° 180° (S) 2,405 5.0 -10.3°
Maximum altitude 00:54:44 43° 112° (ESE) 1,200 4.0 -10.1°
Drops below altitude 10° 01:00:08 10° 43° (NE) 2,511 7.0 -9.8°
Sets 01:02:42 0° 37° (NE) 3,450 8.2 -9.6°
